Time,TemperatureF,DewpointF,PressureIn,WindDirection,WindDirectionDegrees,WindSpeedMPH,WindSpeedGustMPH,Humidity,HourlyPrecipIn,Conditions,Clouds,dailyrainin,SoftwareType,DateUTC
2013-05-16 00:01:00,51.4,49.7,29.66,South,177,0.0,1.0,94,0.00,,,0.00,WUHU216DAVISVP2,2013-05-16 04:01:00,
2013-05-16 00:06:00,51.2,49.5,29.66,South,177,0.0,1.0,94,0.00,,,0.00,WUHU216DAVISVP2,2013-05-16 04:06:00,
2013-05-16 00:11:00,51.0,49.3,29.65,South,177,0.0,0.0,94,0.00,,,0.00,WUHU216DAVISVP2,2013-05-16 04:11:00,
2013-05-16 00:16:00,50.8,49.1,29.65,South,177,0.0,0.0,94,0.00,,,0.00,WUHU216DAVISVP2,2013-05-16 04:16:00,
2013-05-16 00:21:00,50.6,48.9,29.65,South,177,0.0,0.0,94,0.00,,,0.00,WUHU216DAVISVP2,2013-05-16 04:21:00,
2013-05-16 00:26:00,50.6,49.2,29.64,South,177,0.0,0.0,95,0.00,,,0.00,WUHU216DAVISVP2,2013-05-16 04:26:00,
2013-05-16 00:31:00,50.7,49.3,29.64,South,177,0.0,0.0,95,0.00,,,0.00,WUHU216DAVISVP2,2013-05-16 04:31:00,
2013-05-16 00:36:00,50.7,49.3,29.64,South,177,0.0,0.0,95,0.00,,,0.00,WUHU216DAVISVP2,2013-05-16 04:36:00,
2013-05-16 00:41:00,50.7,49.3,29.64,South,177,0.0,1.0,95,0.00,,,0.00,WUHU216DAVISVP2,2013-05-16 04:41:00,
2013-05-16 00:46:00,50.7,49.3,29.64,South,177,0.0,1.0,95,0.00,,,0.00,WUHU216DAVISVP2,2013-05-16 04:46:00,
2013-05-16 00:51:00,50.7,49.3,29.64,South,177,0.0,1.0,95,0.00,,,0.00,WUHU216DAVISVP2,2013-05-16 04:51:00,
2013-05-16 00:56:00,50.6,49.2,29.64,South,177,0.0,1.0,95,0.00,,,0.00,WUHU216DAVISVP2,2013-05-16 04:56:00,
2013-05-16 01:01:00,50.5,49.1,29.64,South,177,0.0,1.0,95,0.00,,,0.00,WUHU216DAVISVP2,2013-05-16 05:01:00,
2013-05-16 01:06:00,50.1,48.4,29.64,South,177,0.0,1.0,94,0.00,,,0.00,WUHU216DAVISVP2,2013-05-16 05:06:00,
2013-05-16 01:11:00,49.7,48.0,29.64,South,177,0.0,1.0,94,0.00,,,0.00,WUHU216DAVISVP2,2013-05-16 05:11:00,
2013-05-16 01:16:00,49.5,48.1,29.64,South,177,0.0,1.0,95,0.00,,,0.00,WUHU216DAVISVP2,2013-05-16 05:16:00,
2013-05-16 01:21:00,49.3,47.9,29.64,South,177,0.0,0.0,95,0.00,,,0.00,WUHU216DAVISVP2,2013-05-16 05:21:00,
2013-05-16 01:26:00,49.0,47.6,29.64,South,177,0.0,0.0,95,0.00,,,0.00,WUHU216DAVISVP2,2013-05-16 05:26:00,
2013-05-16 01:31:00,48.7,47.3,29.63,South,177,0.0,0.0,95,0.00,,,0.00,WUHU216DAVISVP2,2013-05-16 05:31:00,
2013-05-16 01:36:00,48.5,47.1,29.64,South,177,0.0,0.0,95,0.00,,,0.00,WUHU216DAVISVP2,2013-05-16 05:36:00,
2013-05-16 01:41:00,48.3,46.9,29.64,South,177,0.0,0.0,95,0.00,,,0.00,WUHU216DAVISVP2,2013-05-16 05:41:00,
2013-05-16 01:46:00,48.4,47.3,29.64,South,177,0.0,0.0,96,0.00,,,0.00,WUHU216DAVISVP2,2013-05-16 05:46:00,
2013-05-16 01:51:00,48.5,47.4,29.63,South,177,0.0,0.0,96,0.00,,,0.00,WUHU216DAVISVP2,2013-05-16 05:51:00,
2013-05-16 01:56:00,48.6,47.5,29.64,South,177,0.0,0.0,96,0.00,,,0.00,WUHU216DAVISVP2,2013-05-16 05:56:00,
2013-05-16 02:01:00,48.4,47.3,29.64,South,177,0.0,0.0,96,0.00,,,0.00,WUHU216DAVISVP2,2013-05-16 06:01:00,
2013-05-16 02:06:00,48.1,46.7,29.64,South,177,0.0,0.0,95,0.00,,,0.00,WUHU216DAVISVP2,2013-05-16 06:06:00,
2013-05-16 02:11:00,48.0,46.9,29.63,South,177,0.0,2.0,96,0.00,,,0.00,WUHU216DAVISVP2,2013-05-16 06:11:00,
2013-05-16 02:16:00,48.2,47.1,29.63,South,177,0.0,2.0,96,0.00,,,0.00,WUHU216DAVISVP2,2013-05-16 06:16:00,
2013-05-16 02:21:00,48.0,46.9,29.64,South,177,0.0,2.0,96,0.00,,,0.00,WUHU216DAVISVP2,2013-05-16 06:21:00,
2013-05-16 02:26:00,47.6,46.2,29.63,South,177,0.0,1.0,95,0.00,,,0.00,WUHU216DAVISVP2,2013-05-16 06:26:00,
2013-05-16 02:31:00,47.2,45.8,29.63,South,177,0.0,0.0,95,0.00,,,0.00,WUHU216DAVISVP2,2013-05-16 06:31:00,
2013-05-16 02:36:00,46.9,45.5,29.64,South,177,0.0,0.0,95,0.00,,,0.00,WUHU216DAVISVP2,2013-05-16 06:36:00,
2013-05-16 02:41:00,47.0,45.9,29.63,South,177,0.0,0.0,96,0.00,,,0.00,WUHU216DAVISVP2,2013-05-16 06:41:00,
2013-05-16 02:46:00,47.1,46.0,29.63,South,177,0.0,0.0,96,0.00,,,0.00,WUHU216DAVISVP2,2013-05-16 06:46:00,
2013-05-16 02:51:00,47.0,45.9,29.63,South,177,0.0,0.0,96,0.00,,,0.00,WUHU216DAVISVP2,2013-05-16 06:51:00,
2013-05-16 02:56:00,46.9,45.8,29.63,South,177,0.0,0.0,96,0.00,,,0.00,WUHU216DAVISVP2,2013-05-16 06:56:00,
2013-05-16 03:01:00,46.7,45.6,29.64,South,177,0.0,0.0,96,0.00,,,0.00,WUHU216DAVISVP2,2013-05-16 07:01:00,
2013-05-16 03:06:00,46.6,45.5,29.63,South,177,0.0,0.0,96,0.00,,,0.00,WUHU216DAVISVP2,2013-05-16 07:06:00,
2013-05-16 03:11:00,46.5,45.4,29.63,South,177,0.0,0.0,96,0.00,,,0.00,WUHU216DAVISVP2,2013-05-16 07:11:00,
2013-05-16 03:16:00,46.3,45.2,29.63,South,177,0.0,0.0,96,0.00,,,0.00,WUHU216DAVISVP2,2013-05-16 07:16:00,
2013-05-16 03:21:00,46.1,45.0,29.63,South,177,0.0,0.0,96,0.00,,,0.00,WUHU216DAVISVP2,2013-05-16 07:21:00,
2013-05-16 03:26:00,45.8,44.7,29.63,South,177,0.0,0.0,96,0.00,,,0.00,WUHU216DAVISVP2,2013-05-16 07:26:00,
2013-05-16 03:31:00,45.6,44.5,29.62,South,177,0.0,0.0,96,0.00,,,0.00,WUHU216DAVISVP2,2013-05-16 07:31:00,
2013-05-16 03:36:00,45.3,44.2,29.63,South,177,0.0,0.0,96,0.00,,,0.00,WUHU216DAVISVP2,2013-05-16 07:36:00,
2013-05-16 03:41:00,45.3,44.2,29.62,South,177,0.0,0.0,96,0.00,,,0.00,WUHU216DAVISVP2,2013-05-16 07:41:00,
2013-05-16 03:46:00,45.6,44.5,29.62,South,177,0.0,0.0,96,0.00,,,0.00,WUHU216DAVISVP2,2013-05-16 07:46:00,
2013-05-16 03:51:00,45.6,44.5,29.63,South,177,0.0,0.0,96,0.00,,,0.00,WUHU216DAVISVP2,2013-05-16 07:51:00,
2013-05-16 03:56:00,45.5,44.4,29.63,South,177,0.0,0.0,96,0.00,,,0.00,WUHU216DAVISVP2,2013-05-16 07:56:00,
2013-05-16 04:01:00,45.5,44.4,29.62,South,177,0.0,0.0,96,0.00,,,0.00,WUHU216DAVISVP2,2013-05-16 08:01:00,
2013-05-16 04:06:00,45.6,44.5,29.62,South,177,0.0,0.0,96,0.00,,,0.00,WUHU216DAVISVP2,2013-05-16 08:06:00,
2013-05-16 04:11:00,45.3,44.2,29.63,South,177,0.0,0.0,96,0.00,,,0.00,WUHU216DAVISVP2,2013-05-16 08:11:00,
2013-05-16 04:16:00,45.1,44.0,29.63,South,177,0.0,0.0,96,0.00,,,0.00,WUHU216DAVISVP2,2013-05-16 08:16:00,
2013-05-16 04:21:00,44.9,43.8,29.62,South,177,0.0,0.0,96,0.00,,,0.00,WUHU216DAVISVP2,2013-05-16 08:21:00,
2013-05-16 04:26:00,44.6,43.5,29.63,South,177,0.0,0.0,96,0.00,,,0.00,WUHU216DAVISVP2,2013-05-16 08:26:00,
2013-05-16 04:31:00,44.4,43.3,29.62,South,177,0.0,0.0,96,0.00,,,0.00,WUHU216DAVISVP2,2013-05-16 08:31:00,
2013-05-16 04:36:00,44.4,43.3,29.63,South,177,0.0,0.0,96,0.00,,,0.00,WUHU216DAVISVP2,2013-05-16 08:36:00,
2013-05-16 04:41:00,44.2,43.1,29.63,South,177,0.0,0.0,96,0.00,,,0.00,WUHU216DAVISVP2,2013-05-16 08:41:00,
2013-05-16 04:46:00,44.1,43.0,29.63,South,177,0.0,0.0,96,0.00,,,0.00,WUHU216DAVISVP2,2013-05-16 08:46:00,
2013-05-16 04:51:00,43.8,42.7,29.63,South,177,0.0,0.0,96,0.00,,,0.00,WUHU216DAVISVP2,2013-05-16 08:51:00,
2013-05-16 04:56:00,43.7,42.6,29.64,South,177,0.0,0.0,96,0.00,,,0.00,WUHU216DAVISVP2,2013-05-16 08:56:00,
2013-05-16 05:01:00,43.8,42.7,29.64,South,177,0.0,0.0,96,0.00,,,0.00,WUHU216DAVISVP2,2013-05-16 09:01:00,
2013-05-16 05:06:00,44.0,43.2,29.64,South,177,0.0,0.0,97,0.00,,,0.00,WUHU216DAVISVP2,2013-05-16 09:06:00,
2013-05-16 05:11:00,44.0,43.2,29.63,South,177,0.0,0.0,97,0.00,,,0.00,WUHU216DAVISVP2,2013-05-16 09:11:00,
2013-05-16 05:16:00,43.8,42.7,29.64,South,177,0.0,0.0,96,0.00,,,0.00,WUHU216DAVISVP2,2013-05-16 09:16:00,
2013-05-16 05:21:00,43.6,42.5,29.64,South,177,0.0,0.0,96,0.00,,,0.00,WUHU216DAVISVP2,2013-05-16 09:21:00,
2013-05-16 05:26:00,43.5,42.4,29.64,South,177,0.0,0.0,96,0.00,,,0.00,WUHU216DAVISVP2,2013-05-16 09:26:00,
2013-05-16 05:31:00,43.5,42.7,29.64,South,177,0.0,0.0,97,0.00,,,0.00,WUHU216DAVISVP2,2013-05-16 09:31:00,
2013-05-16 05:36:00,43.4,42.6,29.64,South,177,0.0,0.0,97,0.00,,,0.00,WUHU216DAVISVP2,2013-05-16 09:36:00,
2013-05-16 05:41:00,43.4,42.6,29.64,South,177,0.0,0.0,97,0.00,,,0.00,WUHU216DAVISVP2,2013-05-16 09:41:00,
2013-05-16 05:46:00,43.5,42.7,29.64,South,177,0.0,0.0,97,0.00,,,0.00,WUHU216DAVISVP2,2013-05-16 09:46:00,
2013-05-16 05:51:00,43.4,42.6,29.64,South,177,0.0,0.0,97,0.00,,,0.00,WUHU216DAVISVP2,2013-05-16 09:51:00,
2013-05-16 05:56:00,43.4,42.3,29.65,South,177,0.0,0.0,96,0.00,,,0.00,WUHU216DAVISVP2,2013-05-16 09:56:00,
2013-05-16 06:01:00,43.3,42.5,29.64,South,177,0.0,0.0,97,0.00,,,0.00,WUHU216DAVISVP2,2013-05-16 10:01:00,
2013-05-16 06:06:00,43.5,42.7,29.64,South,173,0.0,0.0,97,0.00,,,0.00,WUHU216DAVISVP2,2013-05-16 10:06:00,
2013-05-16 06:11:00,43.7,42.9,29.64,South,173,0.0,0.0,97,0.00,,,0.00,WUHU216DAVISVP2,2013-05-16 10:11:00,
2013-05-16 06:16:00,43.9,43.1,29.64,South,173,0.0,0.0,97,0.00,,,0.00,WUHU216DAVISVP2,2013-05-16 10:16:00,
2013-05-16 06:21:00,43.9,43.1,29.64,South,173,0.0,0.0,97,0.00,,,0.00,WUHU216DAVISVP2,2013-05-16 10:21:00,
2013-05-16 06:26:00,44.0,43.2,29.64,South,173,0.0,0.0,97,0.00,,,0.00,WUHU216DAVISVP2,2013-05-16 10:26:00,
2013-05-16 06:31:00,44.3,43.5,29.64,South,173,0.0,0.0,97,0.00,,,0.00,WUHU216DAVISVP2,2013-05-16 10:31:00,
2013-05-16 06:36:00,44.4,43.6,29.65,South,173,0.0,0.0,97,0.00,,,0.00,WUHU216DAVISVP2,2013-05-16 10:36:00,
2013-05-16 06:41:00,44.7,43.9,29.65,South,173,0.0,0.0,97,0.00,,,0.00,WUHU216DAVISVP2,2013-05-16 10:41:00,
2013-05-16 06:46:00,45.2,44.6,29.65,South,173,0.0,0.0,98,0.00,,,0.00,WUHU216DAVISVP2,2013-05-16 10:46:00,
2013-05-16 06:51:00,45.8,45.2,29.65,South,173,0.0,0.0,98,0.00,,,0.00,WUHU216DAVISVP2,2013-05-16 10:51:00,
2013-05-16 06:56:00,46.2,45.6,29.66,South,173,0.0,0.0,98,0.00,,,0.00,WUHU216DAVISVP2,2013-05-16 10:56:00,
2013-05-16 07:01:00,46.5,45.9,29.66,South,173,0.0,0.0,98,0.00,,,0.00,WUHU216DAVISVP2,2013-05-16 11:01:00,
2013-05-16 07:06:00,47.0,46.4,29.66,South,173,0.0,1.0,98,0.00,,,0.00,WUHU216DAVISVP2,2013-05-16 11:06:00,
2013-05-16 07:11:00,47.8,47.2,29.66,South,173,0.0,2.0,98,0.00,,,0.00,WUHU216DAVISVP2,2013-05-16 11:11:00,
2013-05-16 07:16:00,48.8,48.2,29.66,South,173,0.0,2.0,98,0.00,,,0.00,WUHU216DAVISVP2,2013-05-16 11:16:00,
2013-05-16 07:21:00,49.6,49.0,29.66,South,173,0.0,2.0,98,0.00,,,0.00,WUHU216DAVISVP2,2013-05-16 11:21:00,
2013-05-16 07:26:00,50.3,50.0,29.66,South,173,1.0,2.0,99,0.00,,,0.00,WUHU216DAVISVP2,2013-05-16 11:26:00,
2013-05-16 07:31:00,51.0,50.7,29.66,South,173,1.8,3.0,99,0.00,,,0.00,WUHU216DAVISVP2,2013-05-16 11:31:00,
2013-05-16 07:36:00,51.8,51.5,29.67,South,173,2.0,3.0,99,0.00,,,0.00,WUHU216DAVISVP2,2013-05-16 11:36:00,
2013-05-16 07:41:00,52.7,52.1,29.67,South,173,1.5,3.0,98,0.00,,,0.00,WUHU216DAVISVP2,2013-05-16 11:41:00,
2013-05-16 07:46:00,53.9,51.6,29.67,South,173,1.0,3.0,92,0.00,,,0.00,WUHU216DAVISVP2,2013-05-16 11:46:00,
2013-05-16 07:51:00,54.9,52.0,29.66,South,173,1.0,3.0,90,0.00,,,0.00,WUHU216DAVISVP2,2013-05-16 11:51:00,
2013-05-16 07:56:00,55.9,51.5,29.66,South,173,0.0,2.0,85,0.00,,,0.00,WUHU216DAVISVP2,2013-05-16 11:56:00,
2013-05-16 08:01:00,57.0,50.6,29.66,SSW,202,1.5,2.0,79,0.00,,,0.00,WUHU216DAVISVP2,2013-05-16 12:01:00,
2013-05-16 08:06:00,58.2,51.1,29.66,SSW,209,0.0,2.0,77,0.00,,,0.00,WUHU216DAVISVP2,2013-05-16 12:06:00,
2013-05-16 08:11:00,59.1,51.3,29.66,SSW,209,1.0,2.0,75,0.00,,,0.00,WUHU216DAVISVP2,2013-05-16 12:11:00,
2013-05-16 08:16:00,60.1,51.2,29.66,SW,235,1.1,2.0,72,0.00,,,0.00,WUHU216DAVISVP2,2013-05-16 12:16:00,
2013-05-16 08:21:00,60.9,51.2,29.66,WSW,252,0.0,3.0,70,0.00,,,0.00,WUHU216DAVISVP2,2013-05-16 12:21:00,
2013-05-16 08:26:00,61.6,51.9,29.66,NW,312,1.5,3.0,70,0.00,,,0.00,WUHU216DAVISVP2,2013-05-16 12:26:00,
2013-05-16 08:31:00,62.3,52.1,29.66,NW,312,0.0,3.0,69,0.00,,,0.00,WUHU216DAVISVP2,2013-05-16 12:31:00,
2013-05-16 08:36:00,62.8,51.0,29.66,NW,312,1.3,3.0,65,0.00,,,0.00,WUHU216DAVISVP2,2013-05-16 12:36:00,
2013-05-16 08:41:00,63.4,49.4,29.66,West,271,3.9,8.0,60,0.00,,,0.00,WUHU216DAVISVP2,2013-05-16 12:41:00,
2013-05-16 08:46:00,63.6,48.7,29.66,WNW,297,2.4,12.0,58,0.00,,,0.00,WUHU216DAVISVP2,2013-05-16 12:46:00,
2013-05-16 08:51:00,64.3,48.4,29.67,WSW,243,6.0,12.0,56,0.00,,,0.00,WUHU216DAVISVP2,2013-05-16 12:51:00,
2013-05-16 08:56:00,64.7,49.7,29.67,West,261,3.0,12.0,58,0.00,,,0.00,WUHU216DAVISVP2,2013-05-16 12:56:00,
2013-05-16 09:01:00,65.3,49.3,29.67,WNW,293,2.7,8.0,56,0.00,,,0.00,WUHU216DAVISVP2,2013-05-16 13:01:00,
2013-05-16 09:06:00,65.7,47.7,29.67,WNW,296,6.0,9.0,52,0.00,,,0.00,WUHU216DAVISVP2,2013-05-16 13:06:00,
2013-05-16 09:11:00,65.8,46.1,29.67,West,277,10.0,12.0,49,0.00,,,0.00,WUHU216DAVISVP2,2013-05-16 13:11:00,
2013-05-16 09:16:00,65.9,46.2,29.67,West,273,4.7,12.0,49,0.00,,,0.00,WUHU216DAVISVP2,2013-05-16 13:16:00,
2013-05-16 09:21:00,66.2,46.5,29.67,West,270,4.4,12.0,49,0.00,,,0.00,WUHU216DAVISVP2,2013-05-16 13:21:00,
2013-05-16 09:26:00,66.6,46.8,29.67,WSW,249,6.0,12.0,49,0.00,,,0.00,WUHU216DAVISVP2,2013-05-16 13:26:00,
2013-05-16 09:31:00,66.9,48.7,29.67,West,261,3.0,10.0,52,0.00,,,0.00,WUHU216DAVISVP2,2013-05-16 13:31:00,
2013-05-16 09:36:00,67.5,48.8,29.67,WSW,253,5.8,12.0,51,0.00,,,0.00,WUHU216DAVISVP2,2013-05-16 13:36:00,
2013-05-16 09:41:00,68.1,46.5,29.67,WNW,282,7.0,12.0,46,0.00,,,0.00,WUHU216DAVISVP2,2013-05-16 13:41:00,
2013-05-16 09:46:00,68.5,47.5,29.66,WNW,299,4.4,12.0,47,0.00,,,0.00,WUHU216DAVISVP2,2013-05-16 13:46:00,
2013-05-16 09:51:00,69.1,44.4,29.66,West,281,5.4,12.0,41,0.00,,,0.00,WUHU216DAVISVP2,2013-05-16 13:51:00,
2013-05-16 09:56:00,69.5,46.0,29.67,WSW,249,9.0,13.0,43,0.00,,,0.00,WUHU216DAVISVP2,2013-05-16 13:56:00,
2013-05-16 10:01:00,69.8,43.7,29.67,West,279,8.1,13.0,39,0.00,,,0.00,WUHU216DAVISVP2,2013-05-16 14:01:00,
2013-05-16 10:06:00,70.1,45.9,29.67,WNW,296,5.5,13.0,42,0.00,,,0.00,WUHU216DAVISVP2,2013-05-16 14:06:00,
2013-05-16 10:11:00,70.4,44.8,29.66,West,267,5.0,13.0,40,0.00,,,0.00,WUHU216DAVISVP2,2013-05-16 14:11:00,
2013-05-16 10:16:00,70.9,45.9,29.67,West,273,6.2,13.0,41,0.00,,,0.00,WUHU216DAVISVP2,2013-05-16 14:16:00,
2013-05-16 10:21:00,70.9,45.3,29.67,WSW,252,7.0,13.0,40,0.00,,,0.00,WUHU216DAVISVP2,2013-05-16 14:21:00,
2013-05-16 10:26:00,71.0,46.1,29.67,WNW,290,11.0,17.0,41,0.00,,,0.00,WUHU216DAVISVP2,2013-05-16 14:26:00,
2013-05-16 10:31:00,71.2,45.0,29.67,West,278,8.3,17.0,39,0.00,,,0.00,WUHU216DAVISVP2,2013-05-16 14:31:00,
2013-05-16 10:36:00,71.2,42.9,29.67,WNW,284,9.0,17.0,36,0.00,,,0.00,WUHU216DAVISVP2,2013-05-16 14:36:00,
2013-05-16 10:41:00,71.2,42.9,29.67,SW,219,3.8,16.0,36,0.00,,,0.00,WUHU216DAVISVP2,2013-05-16 14:41:00,
2013-05-16 10:46:00,71.2,45.6,29.67,NW,323,17.0,18.0,40,0.00,,,0.00,WUHU216DAVISVP2,2013-05-16 14:46:00,
2013-05-16 10:51:00,71.7,41.7,29.67,West,275,12.0,20.0,34,0.00,,,0.00,WUHU216DAVISVP2,2013-05-16 14:51:00,
2013-05-16 10:56:00,72.4,43.0,29.66,NNW,340,9.0,21.0,35,0.00,,,0.00,WUHU216DAVISVP2,2013-05-16 14:56:00,
2013-05-16 11:01:00,72.5,43.1,29.67,WSW,257,9.0,21.0,35,0.00,,,0.00,WUHU216DAVISVP2,2013-05-16 15:01:00,
2013-05-16 11:06:00,73.0,44.3,29.66,West,278,8.4,21.0,36,0.00,,,0.00,WUHU216DAVISVP2,2013-05-16 15:06:00,
2013-05-16 11:11:00,73.0,41.2,29.66,WNW,292,10.3,21.0,32,0.00,,,0.00,WUHU216DAVISVP2,2013-05-16 15:11:00,
2013-05-16 11:16:00,73.1,40.5,29.66,NW,308,8.1,21.0,31,0.00,,,0.00,WUHU216DAVISVP2,2013-05-16 15:16:00,
2013-05-16 11:21:00,72.8,41.0,29.66,NW,313,16.0,21.0,32,0.00,,,0.00,WUHU216DAVISVP2,2013-05-16 15:21:00,
2013-05-16 11:26:00,72.7,41.8,29.67,WNW,282,12.0,21.0,33,0.00,,,0.00,WUHU216DAVISVP2,2013-05-16 15:26:00,
2013-05-16 11:31:00,73.0,41.2,29.66,WSW,258,9.0,21.0,32,0.00,,,0.00,WUHU216DAVISVP2,2013-05-16 15:31:00,
2013-05-16 11:36:00,73.9,41.2,29.65,West,274,9.2,21.0,31,0.00,,,0.00,WUHU216DAVISVP2,2013-05-16 15:36:00,
2013-05-16 11:41:00,74.8,42.0,29.65,WNW,286,8.0,21.0,31,0.00,,,0.00,WUHU216DAVISVP2,2013-05-16 15:41:00,
2013-05-16 11:46:00,74.9,42.1,29.65,NNW,331,18.0,21.0,31,0.00,,,0.00,WUHU216DAVISVP2,2013-05-16 15:46:00,
2013-05-16 11:51:00,74.3,39.8,29.65,West,277,13.0,23.0,29,0.00,,,0.00,WUHU216DAVISVP2,2013-05-16 15:51:00,
2013-05-16 11:56:00,74.5,40.0,29.65,WNW,294,14.0,23.0,29,0.00,,,0.00,WUHU216DAVISVP2,2013-05-16 15:56:00,
2013-05-16 12:01:00,74.8,42.8,29.65,NW,317,9.0,23.0,32,0.00,,,0.00,WUHU216DAVISVP2,2013-05-16 16:01:00,
2013-05-16 12:06:00,74.8,40.2,29.65,West,264,8.0,23.0,29,0.00,,,0.00,WUHU216DAVISVP2,2013-05-16 16:06:00,
2013-05-16 12:11:00,75.1,38.7,29.66,WSW,242,13.0,24.0,27,0.00,,,0.00,WUHU216DAVISVP2,2013-05-16 16:11:00,
2013-05-16 12:16:00,75.0,38.6,29.66,West,266,10.8,24.0,27,0.00,,,0.00,WUHU216DAVISVP2,2013-05-16 16:16:00,
2013-05-16 12:21:00,74.8,40.2,29.65,NW,325,7.0,24.0,29,0.00,,,0.00,WUHU216DAVISVP2,2013-05-16 16:21:00,
2013-05-16 12:26:00,75.3,40.7,29.64,WNW,300,7.2,22.0,29,0.00,,,0.00,WUHU216DAVISVP2,2013-05-16 16:26:00,
2013-05-16 12:31:00,75.5,41.7,29.64,WNW,291,12.0,22.0,30,0.00,,,0.00,WUHU216DAVISVP2,2013-05-16 16:31:00,
2013-05-16 12:36:00,75.3,38.9,29.64,WNW,282,8.0,29.0,27,0.00,,,0.00,WUHU216DAVISVP2,2013-05-16 16:36:00,
2013-05-16 12:41:00,75.6,40.9,29.63,SW,223,11.0,29.0,29,0.00,,,0.00,WUHU216DAVISVP2,2013-05-16 16:41:00,
2013-05-16 12:46:00,76.0,39.6,29.64,WNW,289,12.8,29.0,27,0.00,,,0.00,WUHU216DAVISVP2,2013-05-16 16:46:00,
2013-05-16 12:51:00,75.9,40.3,29.64,WNW,302,8.3,29.0,28,0.00,,,0.00,WUHU216DAVISVP2,2013-05-16 16:51:00,
2013-05-16 12:56:00,76.1,42.2,29.64,WNW,289,7.0,20.0,30,0.00,,,0.00,WUHU216DAVISVP2,2013-05-16 16:56:00,
2013-05-16 13:01:00,76.6,40.0,29.64,West,274,11.3,20.0,27,0.00,,,0.00,WUHU216DAVISVP2,2013-05-16 17:01:00,
2013-05-16 13:06:00,76.4,41.8,29.63,WNW,292,9.0,18.0,29,0.00,,,0.00,WUHU216DAVISVP2,2013-05-16 17:06:00,
2013-05-16 13:11:00,76.6,40.9,29.62,WSW,250,11.0,17.0,28,0.00,,,0.00,WUHU216DAVISVP2,2013-05-16 17:11:00,
2013-05-16 13:16:00,76.7,41.9,29.62,West,279,10.6,17.0,29,0.00,,,0.00,WUHU216DAVISVP2,2013-05-16 17:16:00,
2013-05-16 13:21:00,77.0,41.2,29.63,West,268,13.4,21.0,28,0.00,,,0.00,WUHU216DAVISVP2,2013-05-16 17:21:00,
2013-05-16 13:26:00,77.1,41.3,29.62,WSW,257,13.0,23.0,28,0.00,,,0.00,WUHU216DAVISVP2,2013-05-16 17:26:00,
2013-05-16 13:31:00,77.3,42.6,29.62,West,279,11.0,23.0,29,0.00,,,0.00,WUHU216DAVISVP2,2013-05-16 17:31:00,
2013-05-16 13:36:00,77.0,43.2,29.62,WNW,292,4.0,23.0,30,0.00,,,0.00,WUHU216DAVISVP2,2013-05-16 17:36:00,
2013-05-16 13:41:00,77.2,43.2,29.62,NW,323,8.0,23.0,30,0.00,,,0.00,WUHU216DAVISVP2,2013-05-16 17:41:00,
2013-05-16 13:46:00,77.5,44.3,29.63,WNW,297,19.0,19.0,31,0.00,,,0.00,WUHU216DAVISVP2,2013-05-16 17:46:00,
2013-05-16 13:51:00,77.3,42.4,29.62,West,271,9.4,19.0,29,0.00,,,0.00,WUHU216DAVISVP2,2013-05-16 17:51:00,
2013-05-16 13:56:00,77.4,43.4,29.62,SW,232,5.0,19.0,30,0.00,,,0.00,WUHU216DAVISVP2,2013-05-16 17:56:00,
2013-05-16 14:01:00,77.7,40.9,29.63,West,275,24.0,25.0,27,0.00,,,0.00,WUHU216DAVISVP2,2013-05-16 18:01:00,
2013-05-16 14:06:00,77.4,39.7,29.63,WNW,282,20.0,25.0,26,0.00,,,0.00,WUHU216DAVISVP2,2013-05-16 18:06:00,
2013-05-16 14:11:00,77.1,41.3,29.63,WSW,250,9.0,25.0,28,0.00,,,0.00,WUHU216DAVISVP2,2013-05-16 18:11:00,
2013-05-16 14:16:00,77.3,42.6,29.62,WNW,302,10.0,25.0,29,0.00,,,0.00,WUHU216DAVISVP2,2013-05-16 18:16:00,
2013-05-16 14:21:00,77.1,43.3,29.62,NNW,333,15.0,25.0,30,0.00,,,0.00,WUHU216DAVISVP2,2013-05-16 18:21:00,
2013-05-16 14:26:00,77.1,43.3,29.62,NNW,333,15.0,25.0,30,0.00,,,0.00,WUHU216DAVISVP2,2013-05-16 18:26:00,
2013-05-16 14:31:00,77.1,43.1,29.62,SW,233,7.0,26.0,30,0.00,,,0.00,WUHU216DAVISVP2,2013-05-16 18:31:00,
2013-05-16 14:36:00,77.3,44.1,29.62,West,263,14.0,26.0,31,0.00,,,0.00,WUHU216DAVISVP2,2013-05-16 18:36:00,
2013-05-16 14:39:00,77.1,40.4,29.62,WNW,290,10.0,10.0,27,0.00,,,0.00,WUHU216DAVISVP2,2013-05-16 18:39:00,
2013-05-16 14:41:00,77.1,40.4,29.62,WNW,290,10.0,14.0,27,0.00,,,0.00,WUHU216DAVISVP2,2013-05-16 18:41:00,
2013-05-16 14:46:00,77.1,40.4,29.62,WNW,290,10.0,10.0,27,0.00,,,0.00,WUHU216DAVISVP2,2013-05-16 18:46:00,
2013-05-16 15:02:00,77.8,41.9,29.62,NW,322,13.0,13.0,28,0.00,,,0.00,WUHU216DAVISVP2,2013-05-16 19:02:00,
2013-05-16 15:07:00,78.0,44.8,29.62,NW,308,7.0,24.0,31,0.00,,,0.00,WUHU216DAVISVP2,2013-05-16 19:07:00,
2013-05-16 15:12:00,78.0,44.8,29.62,NW,308,7.0,24.0,31,0.00,,,0.00,WUHU216DAVISVP2,2013-05-16 19:12:00,
2013-05-16 15:17:00,78.3,43.3,29.62,WSW,244,9.0,9.0,29,0.00,,,0.00,WUHU216DAVISVP2,2013-05-16 19:17:00,
2013-05-16 15:22:00,78.3,41.4,29.62,WNW,300,16.0,16.0,27,0.00,,,0.00,WUHU216DAVISVP2,2013-05-16 19:22:00,
2013-05-16 15:27:00,78.2,43.2,29.62,WNW,293,7.0,16.0,29,0.00,,,0.00,WUHU216DAVISVP2,2013-05-16 19:27:00,
2013-05-16 15:32:00,78.1,43.1,29.62,WSW,252,13.0,13.0,29,0.00,,,0.00,WUHU216DAVISVP2,2013-05-16 19:32:00,
2013-05-16 15:36:00,78.0,43.0,29.62,West,268,13.0,13.0,29,0.00,,,0.00,WUHU216DAVISVP2,2013-05-16 19:36:00,
2013-05-16 15:37:00,78.0,43.0,29.62,West,268,13.0,13.0,29,0.00,,,0.00,WUHU216DAVISVP2,2013-05-16 19:37:00,
2013-05-16 15:42:00,78.0,43.0,29.62,West,268,13.0,13.0,29,0.00,,,0.00,WUHU216DAVISVP2,2013-05-16 19:42:00,
2013-05-16 16:00:00,78.4,43.5,29.62,WNW,293,10.0,24.0,29,0.00,,,0.00,WUHU216DAVISVP2,2013-05-16 20:00:00,
2013-05-16 16:30:00,78.0,40.3,29.62,West,270,11.0,28.0,26,0.00,,,0.00,WUHU216DAVISVP2,2013-05-16 20:30:00,
2013-05-16 17:00:00,78.5,40.7,29.61,WNW,293,9.0,29.0,26,0.00,,,0.00,WUHU216DAVISVP2,2013-05-16 21:00:00,
2013-05-16 17:42:00,78.0,39.2,29.62,SW,225,10.0,18.0,25,0.00,,,0.00,WUHU216DAVISVP2,2013-05-16 21:42:00,
2013-05-16 17:47:00,78.2,41.3,29.62,WNW,296,6.0,18.0,27,0.00,,,0.00,WUHU216DAVISVP2,2013-05-16 21:47:00,
2013-05-16 17:52:00,78.4,39.6,29.62,WNW,285,8.9,19.0,25,0.00,,,0.00,WUHU216DAVISVP2,2013-05-16 21:52:00,
2013-05-16 17:57:00,78.3,39.5,29.62,WNW,293,10.4,20.0,25,0.00,,,0.00,WUHU216DAVISVP2,2013-05-16 21:57:00,
2013-05-16 18:02:00,78.1,39.3,29.62,West,279,12.0,20.0,25,0.00,,,0.00,WUHU216DAVISVP2,2013-05-16 22:02:00,
2013-05-16 18:07:00,78.0,38.2,29.62,WSW,257,13.9,25.0,24,0.00,,,0.00,WUHU216DAVISVP2,2013-05-16 22:07:00,
2013-05-16 18:12:00,78.0,39.2,29.62,WSW,255,18.0,25.0,25,0.00,,,0.00,WUHU216DAVISVP2,2013-05-16 22:12:00,
2013-05-16 18:17:00,77.8,38.0,29.62,West,280,10.2,25.0,24,0.00,,,0.00,WUHU216DAVISVP2,2013-05-16 22:17:00,
2013-05-16 18:22:00,77.7,39.0,29.63,WNW,300,11.0,25.0,25,0.00,,,0.00,WUHU216DAVISVP2,2013-05-16 22:22:00,
2013-05-16 18:27:00,77.6,36.8,29.62,WSW,254,6.3,25.0,23,0.00,,,0.00,WUHU216DAVISVP2,2013-05-16 22:27:00,
2013-05-16 18:32:00,77.6,36.8,29.62,SW,218,2.0,25.0,23,0.00,,,0.00,WUHU216DAVISVP2,2013-05-16 22:32:00,
2013-05-16 18:37:00,77.7,37.9,29.62,NW,305,1.0,1.0,24,0.00,,,0.00,WUHU216DAVISVP2,2013-05-16 22:37:00,
2013-05-16 18:42:00,77.7,37.9,29.62,NW,305,1.0,1.0,24,0.00,,,0.00,WUHU216DAVISVP2,2013-05-16 22:42:00,
2013-05-16 18:46:00,77.3,38.6,29.63,NW,313,6.0,20.0,25,0.00,,,0.00,WUHU216DAVISVP2,2013-05-16 22:46:00,
2013-05-16 18:47:00,77.3,38.6,29.63,NW,313,6.0,20.0,25,0.00,,,0.00,WUHU216DAVISVP2,2013-05-16 22:47:00,
2013-05-16 18:52:00,77.3,38.6,29.63,NW,313,6.0,20.0,25,0.00,,,0.00,WUHU216DAVISVP2,2013-05-16 22:52:00,
2013-05-16 18:57:00,77.0,38.4,29.63,WNW,292,5.3,19.0,25,0.00,,,0.00,WUHU216DAVISVP2,2013-05-16 22:57:00,
2013-05-16 19:02:00,76.8,37.2,29.64,West,265,5.4,19.0,24,0.00,,,0.00,WUHU216DAVISVP2,2013-05-16 23:02:00,
2013-05-16 19:07:00,76.7,36.0,29.64,WSW,248,13.1,23.0,23,0.00,,,0.00,WUHU216DAVISVP2,2013-05-16 23:07:00,
2013-05-16 19:12:00,76.6,37.1,29.64,WSW,247,11.0,23.0,24,0.00,,,0.00,WUHU216DAVISVP2,2013-05-16 23:12:00,
2013-05-16 19:17:00,76.5,37.0,29.64,West,279,9.0,23.0,24,0.00,,,0.00,WUHU216DAVISVP2,2013-05-16 23:17:00,
2013-05-16 19:22:00,76.0,37.5,29.64,West,277,5.3,22.0,25,0.00,,,0.00,WUHU216DAVISVP2,2013-05-16 23:22:00,
2013-05-16 19:27:00,75.7,37.4,29.64,West,276,4.7,21.0,25,0.00,,,0.00,WUHU216DAVISVP2,2013-05-16 23:27:00,
2013-05-16 19:32:00,75.6,37.3,29.65,West,279,4.0,19.0,25,0.00,,,0.00,WUHU216DAVISVP2,2013-05-16 23:32:00,
2013-05-16 19:37:00,75.6,37.3,29.65,West,279,4.0,14.0,25,0.00,,,0.00,WUHU216DAVISVP2,2013-05-16 23:37:00,
2013-05-16 22:00:00,69.6,34.0,29.73,NW,309,3.0,5.0,27,0.00,,,0.00,WUHU216DAVISVP2,2013-05-17 02:00:00,
2013-05-16 22:05:00,69.5,34.8,29.73,NW,309,6.0,6.0,28,0.00,,,0.00,WUHU216DAVISVP2,2013-05-17 02:05:00,
2013-05-16 22:10:00,69.3,33.7,29.73,West,277,8.0,11.0,27,0.00,,,0.00,WUHU216DAVISVP2,2013-05-17 02:10:00,
2013-05-16 22:15:00,69.3,34.6,29.73,WNW,289,2.4,11.0,28,0.00,,,0.00,WUHU216DAVISVP2,2013-05-17 02:15:00,
2013-05-16 22:20:00,69.0,35.2,29.73,WNW,297,4.4,11.0,29,0.00,,,0.00,WUHU216DAVISVP2,2013-05-17 02:20:00,
2013-05-16 22:25:00,68.6,36.6,29.74,WNW,294,5.0,11.0,31,0.00,,,0.00,WUHU216DAVISVP2,2013-05-17 02:25:00,
2013-05-16 22:30:00,67.9,39.0,29.75,NW,316,5.0,9.0,35,0.00,,,0.00,WUHU216DAVISVP2,2013-05-17 02:30:00,
2013-05-16 22:35:00,67.0,40.4,29.75,NW,325,2.3,9.0,38,0.00,,,0.00,WUHU216DAVISVP2,2013-05-17 02:35:00,
2013-05-16 22:40:00,66.0,41.5,29.75,NNW,327,2.3,8.0,41,0.00,,,0.00,WUHU216DAVISVP2,2013-05-17 02:40:00,
2013-05-16 22:45:00,65.2,42.7,29.76,NNW,343,2.5,5.0,44,0.00,,,0.00,WUHU216DAVISVP2,2013-05-17 02:45:00,
2013-05-16 22:50:00,64.5,43.2,29.77,NNW,343,1.6,5.0,46,0.00,,,0.00,WUHU216DAVISVP2,2013-05-17 02:50:00,
2013-05-16 22:55:00,63.7,44.2,29.77,ENE,59,1.5,5.0,49,0.00,,,0.00,WUHU216DAVISVP2,2013-05-17 02:55:00,
2013-05-16 23:00:00,63.0,44.6,29.78,North,354,1.7,5.0,51,0.00,,,0.00,WUHU216DAVISVP2,2013-05-17 03:00:00,
2013-05-16 23:05:00,62.6,44.8,29.78,NW,319,1.0,5.0,52,0.00,,,0.00,WUHU216DAVISVP2,2013-05-17 03:05:00,
2013-05-16 23:10:00,62.0,44.7,29.79,NW,315,2.2,5.0,53,0.00,,,0.00,WUHU216DAVISVP2,2013-05-17 03:10:00,
2013-05-16 23:15:00,61.6,44.9,29.79,NW,315,1.0,5.0,54,0.00,,,0.00,WUHU216DAVISVP2,2013-05-17 03:15:00,
2013-05-16 23:20:00,61.0,44.8,29.79,NW,315,1.2,5.0,55,0.00,,,0.00,WUHU216DAVISVP2,2013-05-17 03:20:00,
2013-05-16 23:25:00,60.4,45.2,29.79,NW,315,0.0,5.0,57,0.00,,,0.00,WUHU216DAVISVP2,2013-05-17 03:25:00,
2013-05-16 23:30:00,60.1,44.9,29.80,NW,323,1.7,3.0,57,0.00,,,0.00,WUHU216DAVISVP2,2013-05-17 03:30:00,
2013-05-16 23:35:00,59.8,45.1,29.80,NNW,332,1.0,3.0,58,0.00,,,0.00,WUHU216DAVISVP2,2013-05-17 03:35:00,
2013-05-16 23:40:00,59.5,44.8,29.80,NNW,332,1.0,3.0,58,0.00,,,0.00,WUHU216DAVISVP2,2013-05-17 03:40:00,
2013-05-16 23:45:00,59.3,45.0,29.80,NNW,332,0.0,3.0,59,0.00,,,0.00,WUHU216DAVISVP2,2013-05-17 03:45:00,
2013-05-16 23:50:00,59.0,44.8,29.81,NNW,332,0.0,3.0,59,0.00,,,0.00,WUHU216DAVISVP2,2013-05-17 03:50:00,
2013-05-16 23:55:00,58.7,44.8,29.81,NNW,332,0.0,1.0,60,0.00,,,0.00,WUHU216DAVISVP2,2013-05-17 03:55:00,